Year,Month,Day,Hour,Minute,Value (Times are PST for temperature in C)
2020,08,14,00,00,13.60
2020,08,14,00,01,13.60
2020,08,14,00,02,13.60
2020,08,14,00,03,13.60
2020,08,14,00,04,13.60
2020,08,14,00,05,13.60
2020,08,14,00,06,13.60
2020,08,14,00,07,13.50
2020,08,14,00,08,13.50
2020,08,14,00,09,13.50
2020,08,14,00,10,13.50
2020,08,14,00,11,13.50
2020,08,14,00,12,13.40
2020,08,14,00,13,13.40
2020,08,14,00,14,13.40
2020,08,14,00,15,13.40
2020,08,14,00,16,13.40
2020,08,14,00,17,13.40
2020,08,14,00,18,13.40
2020,08,14,00,19,13.30
2020,08,14,00,20,13.30
2020,08,14,00,21,13.30
2020,08,14,00,22,13.30
2020,08,14,00,23,13.30
2020,08,14,00,24,13.30
2020,08,14,00,25,13.20
2020,08,14,00,26,13.20
2020,08,14,00,27,13.20
2020,08,14,00,28,13.20
2020,08,14,00,29,13.20
2020,08,14,00,30,13.20
2020,08,14,00,31,13.20
2020,08,14,00,32,13.20
2020,08,14,00,33,13.10
2020,08,14,00,34,13.10
2020,08,14,00,35,13.10
2020,08,14,00,36,13.10
2020,08,14,00,37,13.10
2020,08,14,00,38,13.10
2020,08,14,00,39,13.10
2020,08,14,00,40,13.00
2020,08,14,00,41,13.00
2020,08,14,00,42,13.00
2020,08,14,00,43,13.00
2020,08,14,00,44,12.90
2020,08,14,00,45,12.90
2020,08,14,00,46,12.90
2020,08,14,00,47,12.90
2020,08,14,00,48,12.90
2020,08,14,00,49,12.90
2020,08,14,00,50,12.90
2020,08,14,00,51,12.80
2020,08,14,00,52,12.80
2020,08,14,00,53,12.80
2020,08,14,00,54,12.80
2020,08,14,00,55,12.80
2020,08,14,00,56,12.70
2020,08,14,00,57,12.70
2020,08,14,00,58,12.70
2020,08,14,00,59,12.70
2020,08,14,01,00,12.60
2020,08,14,01,01,12.60
2020,08,14,01,02,12.60
2020,08,14,01,03,12.60
2020,08,14,01,04,12.60
2020,08,14,01,05,12.60
2020,08,14,01,06,12.50
2020,08,14,01,07,12.50
2020,08,14,01,08,12.50
2020,08,14,01,09,12.50
2020,08,14,01,10,12.50
2020,08,14,01,11,12.50
2020,08,14,01,12,12.50
2020,08,14,01,13,12.40
2020,08,14,01,14,12.40
2020,08,14,01,15,12.40
2020,08,14,01,16,12.40
2020,08,14,01,17,12.40
2020,08,14,01,18,12.40
2020,08,14,01,19,12.40
2020,08,14,01,20,12.40
2020,08,14,01,21,12.40
2020,08,14,01,22,12.40
2020,08,14,01,23,12.40
2020,08,14,01,24,12.40
2020,08,14,01,25,12.40
2020,08,14,01,26,12.40
2020,08,14,01,27,12.40
2020,08,14,01,28,12.40
2020,08,14,01,29,12.40
2020,08,14,01,30,12.40
2020,08,14,01,31,12.40
2020,08,14,01,32,12.40
2020,08,14,01,33,12.40
2020,08,14,01,34,12.40
2020,08,14,01,35,12.30
2020,08,14,01,36,12.30
2020,08,14,01,37,12.30
2020,08,14,01,38,12.30
2020,08,14,01,39,12.30
2020,08,14,01,40,12.20
2020,08,14,01,41,12.20
2020,08,14,01,42,12.20
2020,08,14,01,43,12.20
2020,08,14,01,44,12.20
2020,08,14,01,45,12.20
2020,08,14,01,46,12.20
2020,08,14,01,47,12.20
2020,08,14,01,48,12.20
2020,08,14,01,49,12.20
2020,08,14,01,50,12.20
2020,08,14,01,51,12.20
2020,08,14,01,52,12.10
2020,08,14,01,53,12.10
2020,08,14,01,54,12.10
2020,08,14,01,55,12.10
2020,08,14,01,56,12.10
2020,08,14,01,57,12.10
2020,08,14,01,58,12.10
2020,08,14,01,59,12.20
2020,08,14,02,00,12.20
2020,08,14,02,01,12.20
2020,08,14,02,02,12.20
2020,08,14,02,03,12.20
2020,08,14,02,04,12.20
2020,08,14,02,05,12.20
2020,08,14,02,06,12.20
2020,08,14,02,07,12.20
2020,08,14,02,08,12.20
2020,08,14,02,09,12.20
2020,08,14,02,10,12.20
2020,08,14,02,11,12.20
2020,08,14,02,12,12.10
2020,08,14,02,13,12.10
2020,08,14,02,14,12.10
2020,08,14,02,15,12.10
2020,08,14,02,16,12.10
2020,08,14,02,17,12.10
2020,08,14,02,18,12.10
2020,08,14,02,19,12.10
2020,08,14,02,20,12.10
2020,08,14,02,21,12.10
2020,08,14,02,22,12.10
2020,08,14,02,23,12.10
2020,08,14,02,24,12.00
2020,08,14,02,25,12.00
2020,08,14,02,26,11.90
2020,08,14,02,27,11.90
2020,08,14,02,28,11.90
2020,08,14,02,29,11.80
2020,08,14,02,30,11.80
2020,08,14,02,31,11.80
2020,08,14,02,32,11.80
2020,08,14,02,33,11.70
2020,08,14,02,34,11.70
2020,08,14,02,35,11.70
2020,08,14,02,36,11.70
2020,08,14,02,37,11.70
2020,08,14,02,38,11.60
2020,08,14,02,39,11.60
2020,08,14,02,40,11.60
2020,08,14,02,41,11.50
2020,08,14,02,42,11.50
2020,08,14,02,43,11.50
2020,08,14,02,44,11.50
2020,08,14,02,45,11.40
2020,08,14,02,46,11.40
2020,08,14,02,47,11.40
2020,08,14,02,48,11.40
2020,08,14,02,49,11.40
2020,08,14,02,50,11.40
2020,08,14,02,51,11.40
2020,08,14,02,52,11.40
2020,08,14,02,53,11.40
2020,08,14,02,54,11.40
2020,08,14,02,55,11.40
2020,08,14,02,56,11.40
2020,08,14,02,57,11.40
2020,08,14,02,58,11.40
2020,08,14,02,59,11.40
2020,08,14,03,00,11.40
2020,08,14,03,01,11.40
2020,08,14,03,02,11.40
2020,08,14,03,03,11.40
2020,08,14,03,04,11.30
2020,08,14,03,05,11.30
2020,08,14,03,06,11.30
2020,08,14,03,07,11.30
2020,08,14,03,08,11.30
2020,08,14,03,09,11.30
2020,08,14,03,10,11.40
2020,08,14,03,11,11.40
2020,08,14,03,12,11.40
2020,08,14,03,13,11.40
2020,08,14,03,14,11.40
2020,08,14,03,15,11.40
2020,08,14,03,16,11.40
2020,08,14,03,17,11.40
2020,08,14,03,18,11.40
2020,08,14,03,19,11.40
2020,08,14,03,20,11.40
2020,08,14,03,21,11.40
2020,08,14,03,22,11.40
2020,08,14,03,23,11.30
2020,08,14,03,24,11.30
2020,08,14,03,25,11.30
2020,08,14,03,26,11.30
2020,08,14,03,27,11.30
2020,08,14,03,28,11.30
2020,08,14,03,29,11.30
2020,08,14,03,30,11.30
2020,08,14,03,31,11.30
2020,08,14,03,32,11.20
2020,08,14,03,33,11.20
2020,08,14,03,34,11.20
2020,08,14,03,35,11.20
2020,08,14,03,36,11.10
2020,08,14,03,37,11.10
2020,08,14,03,38,11.10
2020,08,14,03,39,11.10
2020,08,14,03,40,11.00
2020,08,14,03,41,11.10
2020,08,14,03,42,11.10
2020,08,14,03,43,11.10
2020,08,14,03,44,11.10
2020,08,14,03,45,11.10
2020,08,14,03,46,11.10
2020,08,14,03,47,11.10
2020,08,14,03,48,11.10
2020,08,14,03,49,11.00
2020,08,14,03,50,11.00
2020,08,14,03,51,11.00
2020,08,14,03,52,11.00
2020,08,14,03,53,11.00
2020,08,14,03,54,11.00
2020,08,14,03,55,11.00
2020,08,14,03,56,11.00
2020,08,14,03,57,11.00
2020,08,14,03,58,11.00
2020,08,14,03,59,11.00
2020,08,14,04,00,11.00
2020,08,14,04,01,11.00
2020,08,14,04,02,11.00
2020,08,14,04,03,11.00
2020,08,14,04,04,11.00
2020,08,14,04,05,11.00
2020,08,14,04,06,11.00
2020,08,14,04,07,11.00
2020,08,14,04,08,11.00
2020,08,14,04,09,11.00
2020,08,14,04,10,11.00
2020,08,14,04,11,11.00
2020,08,14,04,12,10.90
2020,08,14,04,13,10.90
2020,08,14,04,14,10.90
2020,08,14,04,15,10.90
2020,08,14,04,16,10.90
2020,08,14,04,17,10.90
2020,08,14,04,18,10.90
2020,08,14,04,19,10.80
2020,08,14,04,20,10.80
2020,08,14,04,21,10.80
2020,08,14,04,22,10.80
2020,08,14,04,23,10.80
2020,08,14,04,24,10.70
2020,08,14,04,25,10.70
2020,08,14,04,26,10.70
2020,08,14,04,27,10.70
2020,08,14,04,28,10.70
2020,08,14,04,29,10.70
2020,08,14,04,30,10.70
2020,08,14,04,31,10.70
2020,08,14,04,32,10.70
2020,08,14,04,33,10.70
2020,08,14,04,34,10.70
2020,08,14,04,35,10.70
2020,08,14,04,36,10.70
2020,08,14,04,37,10.70
2020,08,14,04,38,10.80
2020,08,14,04,39,10.80
2020,08,14,04,40,10.80
2020,08,14,04,41,10.80
2020,08,14,04,42,10.80
2020,08,14,04,43,10.80
2020,08,14,04,44,10.80
2020,08,14,04,45,10.90
2020,08,14,04,46,10.90
2020,08,14,04,47,10.90
2020,08,14,04,48,10.90
2020,08,14,04,49,10.90
2020,08,14,04,50,10.90
2020,08,14,04,51,11.00
2020,08,14,04,52,11.00
2020,08,14,04,53,11.00
2020,08,14,04,54,11.00
2020,08,14,04,55,11.00
2020,08,14,04,56,11.00
2020,08,14,04,57,11.00
2020,08,14,04,58,11.00
2020,08,14,04,59,11.00
2020,08,14,05,00,11.00
2020,08,14,05,01,11.00
2020,08,14,05,02,11.00
2020,08,14,05,03,11.00
2020,08,14,05,04,10.90
2020,08,14,05,05,10.90
2020,08,14,05,06,10.90
2020,08,14,05,07,10.90
2020,08,14,05,08,10.90
2020,08,14,05,09,10.90
2020,08,14,05,10,10.90
2020,08,14,05,11,10.90
2020,08,14,05,12,10.90
2020,08,14,05,13,10.90
2020,08,14,05,14,10.90
2020,08,14,05,15,10.90
2020,08,14,05,16,10.90
2020,08,14,05,17,10.90
2020,08,14,05,18,10.90
2020,08,14,05,19,10.90
2020,08,14,05,20,10.90
2020,08,14,05,21,11.00
2020,08,14,05,22,11.00
2020,08,14,05,23,11.10
2020,08,14,05,24,11.10
2020,08,14,05,25,11.10
2020,08,14,05,26,11.10
2020,08,14,05,27,11.10
2020,08,14,05,28,11.10
2020,08,14,05,29,11.10
2020,08,14,05,30,11.10
2020,08,14,05,31,11.10
2020,08,14,05,32,11.10
2020,08,14,05,33,11.10
2020,08,14,05,34,11.10
2020,08,14,05,35,11.10
2020,08,14,05,36,11.10
2020,08,14,05,37,11.20
2020,08,14,05,38,11.20
2020,08,14,05,39,11.20
2020,08,14,05,40,11.20
2020,08,14,05,41,11.20
2020,08,14,05,42,11.10
2020,08,14,05,43,11.20
2020,08,14,05,44,11.20
2020,08,14,05,45,11.20
2020,08,14,05,46,11.20
2020,08,14,05,47,11.20
2020,08,14,05,48,11.20
2020,08,14,05,49,11.20
2020,08,14,05,50,11.20
2020,08,14,05,51,11.20
2020,08,14,05,52,11.20
2020,08,14,05,53,11.20
2020,08,14,05,54,11.20
2020,08,14,05,55,11.20
2020,08,14,05,56,11.20
2020,08,14,05,57,11.20
2020,08,14,05,58,11.20
2020,08,14,05,59,11.20
2020,08,14,06,00,11.20
2020,08,14,06,01,11.20
2020,08,14,06,02,11.10
2020,08,14,06,03,11.10
2020,08,14,06,04,11.10
2020,08,14,06,05,11.10
2020,08,14,06,06,11.10
2020,08,14,06,07,11.10
2020,08,14,06,08,11.10
2020,08,14,06,09,11.10
2020,08,14,06,10,11.10
2020,08,14,06,11,11.10
2020,08,14,06,12,11.10
2020,08,14,06,13,11.00
2020,08,14,06,14,11.00
2020,08,14,06,15,11.00
2020,08,14,06,16,11.00
2020,08,14,06,17,11.00
2020,08,14,06,18,11.00
2020,08,14,06,19,11.00
2020,08,14,06,20,10.90
2020,08,14,06,21,10.90
2020,08,14,06,22,10.90
2020,08,14,06,23,10.90
2020,08,14,06,24,10.90
2020,08,14,06,25,10.90
2020,08,14,06,26,10.90
2020,08,14,06,27,10.90
2020,08,14,06,28,10.90
2020,08,14,06,29,10.90
2020,08,14,06,30,10.90
2020,08,14,06,31,10.90
2020,08,14,06,32,10.90
2020,08,14,06,33,10.90
2020,08,14,06,34,10.90
2020,08,14,06,35,10.90
2020,08,14,06,36,10.90
2020,08,14,06,37,10.90
2020,08,14,06,38,10.90
2020,08,14,06,39,10.90
2020,08,14,06,40,10.90
2020,08,14,06,41,10.90
2020,08,14,06,42,10.90
2020,08,14,06,43,10.90
2020,08,14,06,44,10.90
2020,08,14,06,45,10.90
2020,08,14,06,46,10.90
2020,08,14,06,47,10.90
2020,08,14,06,48,10.90
2020,08,14,06,49,10.90
2020,08,14,06,50,11.00
2020,08,14,06,51,11.00
2020,08,14,06,52,11.00
2020,08,14,06,53,11.00
2020,08,14,06,54,11.00
2020,08,14,06,55,11.00
2020,08,14,06,56,11.00
2020,08,14,06,57,11.00
2020,08,14,06,58,11.10
2020,08,14,06,59,11.10
2020,08,14,07,00,11.10
2020,08,14,07,01,11.10
2020,08,14,07,02,11.10
2020,08,14,07,03,11.10
2020,08,14,07,04,11.10
2020,08,14,07,05,11.20
2020,08,14,07,06,11.20
2020,08,14,07,07,11.20
2020,08,14,07,08,11.20
2020,08,14,07,09,11.30
2020,08,14,07,10,11.30
2020,08,14,07,11,11.30
2020,08,14,07,12,11.30
2020,08,14,07,13,11.40
2020,08,14,07,14,11.40
2020,08,14,07,15,11.40
2020,08,14,07,16,11.40
2020,08,14,07,17,11.50
2020,08,14,07,18,11.50
2020,08,14,07,19,11.60
2020,08,14,07,20,11.60
2020,08,14,07,21,11.60
2020,08,14,07,22,11.60
2020,08,14,07,23,11.70
2020,08,14,07,24,11.70
2020,08,14,07,25,11.70
2020,08,14,07,26,11.70
2020,08,14,07,27,11.70
2020,08,14,07,28,11.70
2020,08,14,07,29,11.80
2020,08,14,07,30,11.80
2020,08,14,07,31,11.80
2020,08,14,07,32,11.80
2020,08,14,07,33,11.80
2020,08,14,07,34,11.80
2020,08,14,07,35,11.80
2020,08,14,07,36,11.80
2020,08,14,07,37,11.80
2020,08,14,07,38,11.80
2020,08,14,07,39,11.90
2020,08,14,07,40,11.90
2020,08,14,07,41,11.90
2020,08,14,07,42,11.90
2020,08,14,07,43,11.90
2020,08,14,07,44,11.90
2020,08,14,07,45,11.90
2020,08,14,07,46,12.00
2020,08,14,07,47,12.00
2020,08,14,07,48,12.00
2020,08,14,07,49,12.00
2020,08,14,07,50,12.00
2020,08,14,07,51,12.00
2020,08,14,07,52,12.10
2020,08,14,07,53,12.10
2020,08,14,07,54,12.20
2020,08,14,07,55,12.20
2020,08,14,07,56,12.20
2020,08,14,07,57,12.30
2020,08,14,07,58,12.30
2020,08,14,07,59,12.40
2020,08,14,08,00,12.50
2020,08,14,08,01,12.50
2020,08,14,08,02,12.60
2020,08,14,08,03,12.60
2020,08,14,08,04,12.70
2020,08,14,08,05,12.70
2020,08,14,08,06,12.70
2020,08,14,08,07,12.70
2020,08,14,08,08,12.70
2020,08,14,08,09,12.70
2020,08,14,08,10,12.70
2020,08,14,08,11,12.70
2020,08,14,08,12,12.70
2020,08,14,08,13,12.80
2020,08,14,08,14,12.80
2020,08,14,08,15,12.90
2020,08,14,08,16,12.90
2020,08,14,08,17,13.00
2020,08,14,08,18,13.00
2020,08,14,08,19,13.10
2020,08,14,08,20,13.10
2020,08,14,08,21,13.10
2020,08,14,08,22,13.10
2020,08,14,08,23,13.10
2020,08,14,08,24,13.10
2020,08,14,08,25,13.10
2020,08,14,08,26,13.20
2020,08,14,08,27,13.20
2020,08,14,08,28,13.20
2020,08,14,08,29,13.20
2020,08,14,08,30,13.30
2020,08,14,08,31,13.30
2020,08,14,08,32,13.30
2020,08,14,08,33,13.30
2020,08,14,08,34,13.40
2020,08,14,08,35,13.40
2020,08,14,08,36,13.50
2020,08,14,08,37,13.50
2020,08,14,08,38,13.60
2020,08,14,08,39,13.60
2020,08,14,08,40,13.60
2020,08,14,08,41,13.70
2020,08,14,08,42,13.70
2020,08,14,08,43,13.80
2020,08,14,08,44,13.80
2020,08,14,08,45,13.90
2020,08,14,08,46,13.90
2020,08,14,08,47,13.90
2020,08,14,08,48,14.00
2020,08,14,08,49,14.00
2020,08,14,08,50,14.10
2020,08,14,08,51,14.10
2020,08,14,08,52,14.10
2020,08,14,08,53,14.20
2020,08,14,08,54,14.20
2020,08,14,08,55,14.20
2020,08,14,08,56,14.30
2020,08,14,08,57,14.30
2020,08,14,08,58,14.30
2020,08,14,08,59,14.40
2020,08,14,09,00,14.40
2020,08,14,09,01,14.50
2020,08,14,09,02,14.50
2020,08,14,09,03,14.60
2020,08,14,09,04,14.60
2020,08,14,09,05,14.70
2020,08,14,09,06,14.70
2020,08,14,09,07,14.70
2020,08,14,09,08,14.80
2020,08,14,09,09,14.80
2020,08,14,09,10,14.80
2020,08,14,09,11,14.90
2020,08,14,09,12,14.90
2020,08,14,09,13,15.00
2020,08,14,09,14,15.00
2020,08,14,09,15,15.10
2020,08,14,09,16,15.10
2020,08,14,09,17,15.10
2020,08,14,09,18,15.20
2020,08,14,09,19,15.20
2020,08,14,09,20,15.20
2020,08,14,09,21,15.30
2020,08,14,09,22,15.30
2020,08,14,09,23,15.30
2020,08,14,09,24,15.30
2020,08,14,09,25,15.40
2020,08,14,09,26,15.40
2020,08,14,09,27,15.40
2020,08,14,09,28,15.50
2020,08,14,09,29,15.50
2020,08,14,09,30,15.50
2020,08,14,09,31,15.60
2020,08,14,09,32,15.60
2020,08,14,09,33,15.60
2020,08,14,09,34,15.70
2020,08,14,09,35,15.70
2020,08,14,09,36,15.70
2020,08,14,09,37,15.80
2020,08,14,09,38,15.80
2020,08,14,09,39,15.80
2020,08,14,09,40,15.80
2020,08,14,09,41,15.80
2020,08,14,09,42,15.90
2020,08,14,09,43,15.90
2020,08,14,09,44,15.90
2020,08,14,09,45,15.90
2020,08,14,09,46,15.90
2020,08,14,09,47,15.90
2020,08,14,09,48,15.90
2020,08,14,09,49,16.00
2020,08,14,09,50,16.00
2020,08,14,09,51,16.10
2020,08,14,09,52,16.10
2020,08,14,09,53,16.10
2020,08,14,09,54,16.10
2020,08,14,09,55,16.10
2020,08,14,09,56,16.10
2020,08,14,09,57,16.00
2020,08,14,09,58,16.00
2020,08,14,09,59,16.00
2020,08,14,10,00,16.00
2020,08,14,10,01,16.00
2020,08,14,10,02,16.00
2020,08,14,10,03,16.00
2020,08,14,10,04,16.00
2020,08,14,10,05,16.00
2020,08,14,10,06,16.10
2020,08,14,10,07,16.10
2020,08,14,10,08,16.10
2020,08,14,10,09,16.10
2020,08,14,10,10,16.10
2020,08,14,10,11,16.10
2020,08,14,10,12,16.10
2020,08,14,10,13,16.10
2020,08,14,10,14,16.10
2020,08,14,10,15,16.20
2020,08,14,10,16,16.20
2020,08,14,10,17,16.30
2020,08,14,10,18,16.30
2020,08,14,10,19,16.40
2020,08,14,10,20,16.40
2020,08,14,10,21,16.40
2020,08,14,10,22,16.40
2020,08,14,10,23,16.30
2020,08,14,10,24,16.30
2020,08,14,10,25,16.20
2020,08,14,10,26,16.20
2020,08,14,10,27,16.20
2020,08,14,10,28,16.20
2020,08,14,10,29,16.20
2020,08,14,10,30,16.10
2020,08,14,10,31,16.10
2020,08,14,10,32,16.10
2020,08,14,10,33,16.00
2020,08,14,10,34,15.90
2020,08,14,10,35,15.90
2020,08,14,10,36,15.80
2020,08,14,10,37,15.70
2020,08,14,10,38,15.70
2020,08,14,10,39,15.70
2020,08,14,10,40,15.60
2020,08,14,10,41,15.60
2020,08,14,10,42,15.60
2020,08,14,10,43,15.60
2020,08,14,10,44,15.60
2020,08,14,10,45,15.60
2020,08,14,10,46,15.60
2020,08,14,10,47,15.60
2020,08,14,10,48,15.60
2020,08,14,10,49,15.60
2020,08,14,10,50,15.70
2020,08,14,10,51,15.70
2020,08,14,10,52,15.70
2020,08,14,10,53,15.70
2020,08,14,10,54,15.70
2020,08,14,10,55,15.70
2020,08,14,10,56,15.60
2020,08,14,10,57,15.60
2020,08,14,10,58,15.50
2020,08,14,10,59,15.50
2020,08,14,11,00,15.40
2020,08,14,11,01,15.40
2020,08,14,11,02,15.40
2020,08,14,11,03,15.40
2020,08,14,11,04,15.40
2020,08,14,11,05,15.30
2020,08,14,11,06,15.30
2020,08,14,11,07,15.30
2020,08,14,11,08,15.30
2020,08,14,11,09,15.30
2020,08,14,11,10,15.30
2020,08,14,11,11,15.30
2020,08,14,11,12,15.30
2020,08,14,11,13,15.30
2020,08,14,11,14,15.30
2020,08,14,11,15,15.30
2020,08,14,11,16,15.30
2020,08,14,11,17,15.20
2020,08,14,11,18,15.20
2020,08,14,11,19,15.20
2020,08,14,11,20,15.20
2020,08,14,11,21,15.20
2020,08,14,11,22,15.20
2020,08,14,11,23,15.20
2020,08,14,11,24,15.20
2020,08,14,11,25,15.30
2020,08,14,11,26,15.30
2020,08,14,11,27,15.40
2020,08,14,11,28,15.50
2020,08,14,11,29,15.60
2020,08,14,11,30,15.60
2020,08,14,11,31,15.70
2020,08,14,11,32,15.70
2020,08,14,11,33,15.70
2020,08,14,11,34,15.70
2020,08,14,11,35,15.70
2020,08,14,11,36,15.70
2020,08,14,11,37,15.60
2020,08,14,11,38,15.60
2020,08,14,11,39,15.60
2020,08,14,11,40,15.60
2020,08,14,11,41,15.60
2020,08,14,11,42,15.50
2020,08,14,11,43,15.50
2020,08,14,11,44,15.50
2020,08,14,11,45,15.40
2020,08,14,11,46,15.40
2020,08,14,11,47,15.50
2020,08,14,11,48,15.50
2020,08,14,11,49,15.50
2020,08,14,11,50,15.60
2020,08,14,11,51,15.70
2020,08,14,11,52,15.80
2020,08,14,11,53,15.90
2020,08,14,11,54,16.00
2020,08,14,11,55,16.10
2020,08,14,11,56,16.20
2020,08,14,11,57,16.30
2020,08,14,11,58,16.30
2020,08,14,11,59,16.40
2020,08,14,12,00,16.40
2020,08,14,12,01,16.40
2020,08,14,12,02,16.50
2020,08,14,12,03,16.60
2020,08,14,12,04,16.70
2020,08,14,12,05,16.80
2020,08,14,12,06,16.80
2020,08,14,12,07,16.90
2020,08,14,12,08,16.90
2020,08,14,12,09,17.00
2020,08,14,12,10,17.10
2020,08,14,12,11,17.10
2020,08,14,12,12,17.10
2020,08,14,12,13,17.10
2020,08,14,12,14,17.10
2020,08,14,12,15,17.10
2020,08,14,12,16,17.10
2020,08,14,12,17,17.10
2020,08,14,12,18,17.20
2020,08,14,12,19,17.20
2020,08,14,12,20,17.20
2020,08,14,12,21,17.20
2020,08,14,12,22,17.20
2020,08,14,12,23,17.30
2020,08,14,12,24,17.30
2020,08,14,12,25,17.30
2020,08,14,12,26,17.30
2020,08,14,12,27,17.30
2020,08,14,12,28,17.30
2020,08,14,12,29,17.30
2020,08,14,12,30,17.20
2020,08,14,12,31,17.20
2020,08,14,12,32,17.20
2020,08,14,12,33,17.20
2020,08,14,12,34,17.20
2020,08,14,12,35,17.20
2020,08,14,12,36,17.20
2020,08,14,12,37,17.20
2020,08,14,12,38,17.20
2020,08,14,12,39,17.20
2020,08,14,12,40,17.30
2020,08,14,12,41,17.30
2020,08,14,12,42,17.30
2020,08,14,12,43,17.30
2020,08,14,12,44,17.40
2020,08,14,12,45,17.40
2020,08,14,12,46,17.40
2020,08,14,12,47,17.50
2020,08,14,12,48,17.60
2020,08,14,12,49,17.60
2020,08,14,12,50,17.60
2020,08,14,12,51,17.60
2020,08,14,12,52,17.60
2020,08,14,12,53,17.60
2020,08,14,12,54,17.70
2020,08,14,12,55,17.70
2020,08,14,12,56,17.70
2020,08,14,12,57,17.70
2020,08,14,12,58,17.70
2020,08,14,12,59,17.80
2020,08,14,13,00,17.80
2020,08,14,13,01,17.70
2020,08,14,13,02,17.70
2020,08,14,13,03,17.70
2020,08,14,13,04,17.80
2020,08,14,13,05,17.80
2020,08,14,13,06,17.90
2020,08,14,13,07,17.90
2020,08,14,13,08,17.80
2020,08,14,13,09,17.80
2020,08,14,13,10,17.70
2020,08,14,13,11,17.70
2020,08,14,13,12,17.70
2020,08,14,13,13,17.70
2020,08,14,13,14,17.70
2020,08,14,13,15,17.80
2020,08,14,13,16,17.90
2020,08,14,13,17,17.90
2020,08,14,13,18,18.00
2020,08,14,13,19,18.00
2020,08,14,13,20,18.10
2020,08,14,13,21,18.10
2020,08,14,13,22,18.20
2020,08,14,13,23,18.20
2020,08,14,13,24,18.20
2020,08,14,13,25,18.30
2020,08,14,13,26,18.40
2020,08,14,13,27,18.50
2020,08,14,13,28,18.60
2020,08,14,13,29,18.70
2020,08,14,13,30,18.70
2020,08,14,13,31,18.70
2020,08,14,13,32,18.70
2020,08,14,13,33,18.60
2020,08,14,13,34,18.70
2020,08,14,13,35,18.70
2020,08,14,13,36,18.60
2020,08,14,13,37,18.60
2020,08,14,13,38,18.50
2020,08,14,13,39,18.40
2020,08,14,13,40,18.30
2020,08,14,13,41,18.20
2020,08,14,13,42,18.10
2020,08,14,13,43,18.00
2020,08,14,13,44,17.90
2020,08,14,13,45,17.90
2020,08,14,13,46,17.90
2020,08,14,13,47,17.90
2020,08,14,13,48,17.90
2020,08,14,13,49,17.80
2020,08,14,13,50,17.90
2020,08,14,13,51,17.90
2020,08,14,13,52,17.90
2020,08,14,13,53,18.00
2020,08,14,13,54,18.00
2020,08,14,13,55,18.10
2020,08,14,13,56,18.20
2020,08,14,13,57,18.30
2020,08,14,13,58,18.30
2020,08,14,13,59,18.40
2020,08,14,14,00,18.40
2020,08,14,14,01,18.50
2020,08,14,14,02,18.60
2020,08,14,14,03,18.80
2020,08,14,14,04,18.90
2020,08,14,14,05,18.90
2020,08,14,14,06,19.00
2020,08,14,14,07,19.00
2020,08,14,14,08,18.90
2020,08,14,14,09,18.90
2020,08,14,14,10,19.00
2020,08,14,14,11,19.00
2020,08,14,14,12,19.10
2020,08,14,14,13,19.10
2020,08,14,14,14,19.10
2020,08,14,14,15,19.10
2020,08,14,14,16,19.10
2020,08,14,14,17,19.20
2020,08,14,14,18,19.20
2020,08,14,14,19,19.30
2020,08,14,14,20,19.30
2020,08,14,14,21,19.40
2020,08,14,14,22,19.40
2020,08,14,14,23,19.40
2020,08,14,14,24,19.40
2020,08,14,14,25,19.40
2020,08,14,14,26,19.40
2020,08,14,14,27,19.50
2020,08,14,14,28,19.50
2020,08,14,14,29,19.50
2020,08,14,14,30,19.60
2020,08,14,14,31,19.50
2020,08,14,14,32,19.50
2020,08,14,14,33,19.40
2020,08,14,14,34,19.40
2020,08,14,14,35,19.30
2020,08,14,14,36,19.30
2020,08,14,14,37,19.30
2020,08,14,14,38,19.30
2020,08,14,14,39,19.30
2020,08,14,14,40,19.30
2020,08,14,14,41,19.40
2020,08,14,14,42,19.40
2020,08,14,14,43,19.40
2020,08,14,14,44,19.50
2020,08,14,14,45,19.50
2020,08,14,14,46,19.50
2020,08,14,14,47,19.50
2020,08,14,14,48,19.60
2020,08,14,14,49,19.60
2020,08,14,14,50,19.70
2020,08,14,14,51,19.70
2020,08,14,14,52,19.80
2020,08,14,14,53,19.80
2020,08,14,14,54,19.90
2020,08,14,14,55,19.90
2020,08,14,14,56,20.00
2020,08,14,14,57,20.10
2020,08,14,14,58,20.10
2020,08,14,14,59,20.10
2020,08,14,15,00,20.20
2020,08,14,15,01,20.20
2020,08,14,15,02,20.20
2020,08,14,15,03,20.20
2020,08,14,15,04,20.20
2020,08,14,15,05,20.20
2020,08,14,15,06,20.10
2020,08,14,15,07,20.10
2020,08,14,15,08,20.00
2020,08,14,15,09,19.90
2020,08,14,15,10,19.90
2020,08,14,15,11,19.80
2020,08,14,15,12,19.90
2020,08,14,15,13,19.90
2020,08,14,15,14,20.00
2020,08,14,15,15,20.10
2020,08,14,15,16,20.10
2020,08,14,15,17,20.20
2020,08,14,15,18,20.20
2020,08,14,15,19,20.20
2020,08,14,15,20,20.20
2020,08,14,15,21,20.20
2020,08,14,15,22,20.20
2020,08,14,15,23,20.20
2020,08,14,15,24,20.20
2020,08,14,15,25,20.30
2020,08,14,15,26,20.30
2020,08,14,15,27,20.40
2020,08,14,15,28,20.40
2020,08,14,15,29,20.50
2020,08,14,15,30,20.60
2020,08,14,15,31,20.60
2020,08,14,15,32,20.70
2020,08,14,15,33,20.70
2020,08,14,15,34,20.70
2020,08,14,15,35,20.70
2020,08,14,15,36,20.80
2020,08,14,15,37,20.80
2020,08,14,15,38,20.90
2020,08,14,15,39,21.00
2020,08,14,15,40,21.00
2020,08,14,15,41,21.10
2020,08,14,15,42,21.20
2020,08,14,15,43,21.20
2020,08,14,15,44,21.20
2020,08,14,15,45,21.20
2020,08,14,15,46,21.20
2020,08,14,15,47,21.20
2020,08,14,15,48,21.30
2020,08,14,15,49,21.40
2020,08,14,15,50,21.50
2020,08,14,15,51,21.60
2020,08,14,15,52,21.60
2020,08,14,15,53,21.60
2020,08,14,15,54,21.60
2020,08,14,15,55,21.60
2020,08,14,15,56,21.70
2020,08,14,15,57,21.70
2020,08,14,15,58,21.80
2020,08,14,15,59,21.90
2020,08,14,16,00,22.00
2020,08,14,16,01,22.00
2020,08,14,16,02,22.00
2020,08,14,16,03,22.00
2020,08,14,16,04,22.00
2020,08,14,16,05,22.00
2020,08,14,16,06,22.00
2020,08,14,16,07,22.10
2020,08,14,16,08,22.10
2020,08,14,16,09,22.10
2020,08,14,16,10,22.20
2020,08,14,16,11,22.20
2020,08,14,16,12,22.20
2020,08,14,16,13,22.10
2020,08,14,16,14,22.10
2020,08,14,16,15,22.10
2020,08,14,16,16,22.10
2020,08,14,16,17,22.10
2020,08,14,16,18,22.10
2020,08,14,16,19,22.00
2020,08,14,16,20,21.90
2020,08,14,16,21,21.90
2020,08,14,16,22,21.90
2020,08,14,16,23,21.90
2020,08,14,16,24,21.90
2020,08,14,16,25,21.90
2020,08,14,16,26,21.90
2020,08,14,16,27,21.90
2020,08,14,16,28,21.90
2020,08,14,16,29,21.90
2020,08,14,16,30,21.80
2020,08,14,16,31,21.80
2020,08,14,16,32,21.70
2020,08,14,16,33,21.70
2020,08,14,16,34,21.70
2020,08,14,16,35,21.70
2020,08,14,16,36,21.70
2020,08,14,16,37,21.70
2020,08,14,16,38,21.70
2020,08,14,16,39,21.70
2020,08,14,16,40,21.80
2020,08,14,16,41,21.80
2020,08,14,16,42,21.80
2020,08,14,16,43,21.80
2020,08,14,16,44,21.80
2020,08,14,16,45,21.80
2020,08,14,16,46,21.80
2020,08,14,16,47,21.80
2020,08,14,16,48,21.70
2020,08,14,16,49,21.60
2020,08,14,16,50,21.60
2020,08,14,16,51,21.50
2020,08,14,16,52,21.50
2020,08,14,16,53,21.50
2020,08,14,16,54,21.50
2020,08,14,16,55,21.60
2020,08,14,16,56,21.60
2020,08,14,16,57,21.60
2020,08,14,16,58,21.70
2020,08,14,16,59,21.70
2020,08,14,17,00,21.70
2020,08,14,17,01,21.80
2020,08,14,17,02,21.80
2020,08,14,17,03,21.80
2020,08,14,17,04,21.90
2020,08,14,17,05,21.90
2020,08,14,17,06,21.90
2020,08,14,17,07,22.00
2020,08,14,17,08,22.00
2020,08,14,17,09,22.10
2020,08,14,17,10,22.10
2020,08,14,17,11,22.20
2020,08,14,17,12,22.20
2020,08,14,17,13,22.20
2020,08,14,17,14,22.20
2020,08,14,17,15,22.20
2020,08,14,17,16,22.20
2020,08,14,17,17,22.20
2020,08,14,17,18,22.20
2020,08,14,17,19,22.20